Weather observations for the past three days for
Kalamazoo/Battle Creek International Airport
Imperial (Metric)
Date Time (edt) Wind (mph) Vis. (mi.) Weather Sky Cond. Temperature (ºF) Relative Humidity Wind Chill (°F) Heat Index (°F) Pressure Precipitation (in)
Air Dwpt 6 hour altimeter (in) sea level (mb) 1 hr 3 hr 6 hr
Max. Min.
21 02:53 Calm 10.00 A Few Clouds FEW060 FEW100 73.9 70 88% 30.24 1023.4
21 01:53 Calm 10.00 A Few Clouds FEW120 73.9 70 84.9 73.9 88% 30.24 1023.2
21 00:53 Calm 10.00 Fair CLR 75 70 84% 75 30.25 1023.7
20 23:53 Calm 10.00 Overcast OVC100 75.9 71.1 85% 76 30.26 1023.9
20 22:53 Calm 10.00 A Few Clouds FEW100 75.9 70 82% 77 30.26 1024.1
20 21:53 Calm 10.00 Fair CLR 79 70 74% 82 30.25 1023.7
20 20:53 E 6 10.00 Mostly Cloudy BKN110 81 70 69% 84 30.24 1023.4
20 19:53 NE 5 G 16 10.00 Overcast OVC075 84.9 72 93 84.9 65% 91 30.24 1023.4
20 18:53 NW 12 10.00 Thunderstorm in Vicinity OVC090 88 68 52% 92 30.23 1023.0
20 17:53 NW 10 10.00 A Few Clouds FEW100 91 71.1 52% 98 30.23 1023.1
20 16:53 NW 12 10.00 Mostly Cloudy BKN050 91 70 50% 97 30.23 1023.0
20 15:53 SW 9 10.00 A Few Clouds FEW055 91.9 68 46% 96 30.24 1023.4
20 14:53 W 7 10.00 A Few Clouds FEW100 91 70 50% 97 30.26 1023.8
20 13:53 W 5 10.00 Partly Cloudy SCT050 SCT090 91 68 91 77 47% 95 30.27 1024.3
20 12:53 S 6 10.00 Mostly Cloudy SCT042 SCT060 BKN075 90 72 56% 97 30.29 1024.9
20 11:53 Calm 10.00 Fair CLR 89.1 71.1 55% 95 30.29 1025.0
20 10:53 W 5 10.00 Fair CLR 86 70 59% 91 30.29 1025.0
20 09:53 Vrbl 3 10.00 Fair CLR 82.9 72 70% 88 30.29 1025.2
20 08:53 Calm 10.00 Fair CLR 80.1 71.1 74% 84 30.3 1025.1
20 07:53 N 5 10.00 Mostly Cloudy BKN085 77 71.1 79 71.1 82% 79 30.29 1024.9
20 06:53 Calm 8.00 Fair CLR 71.1 68 90% 30.28 1024.6
20 05:53 Calm 10.00 Fair CLR 73 68 84% 30.26 1023.9
20 04:53 Calm 10.00 Fair CLR 73 68 84% 30.25 1023.8
20 03:53 Calm 10.00 Fair CLR 73.9 68 82% 30.25 1023.7
20 02:53 Calm 10.00 Fair CLR 77 68 74% 79 30.25 1023.6
20 01:53 N 3 10.00 A Few Clouds FEW050 79 66.9 89.1 77 67% 81 30.26 1023.9
20 00:53 Calm 10.00 Fair CLR 78.1 69.1 74% 80 30.25 1023.6
19 23:53 Calm 10.00 Mostly Cloudy BKN080 80.1 69.1 69% 83 30.25 1023.7
19 22:53 Calm 10.00 Partly Cloudy SCT100 82 69.1 65% 85 30.25 1023.6
19 21:53 S 12 G 21 10.00 A Few Clouds FEW090 82.9 70 65% 87 30.24 1023.4
19 20:53 Calm 10.00 Fair CLR 87.1 69.1 55% 91 30.22 1022.7
19 19:53 S 3 10.00 Fair CLR 89.1 69.1 91.9 89.1 52% 94 30.22 1022.5
19 18:53 S 7 10.00 A Few Clouds FEW085 90 68 48% 94 30.21 1022.4
19 17:53 Vrbl 6 10.00 A Few Clouds FEW055 90 69.1 50% 95 30.22 1022.6
19 16:53 S 9 10.00 A Few Clouds FEW050 91 69.1 49% 96 30.22 1022.6
19 15:53 SW 9 10.00 Fair CLR 91.9 69.1 47% 97 30.23 1022.9
19 14:53 Vrbl 5 10.00 A Few Clouds FEW050 91 69.1 49% 96 30.24 1023.2
19 13:53 S 6 10.00 Fair CLR 91 68 91 77 47% 95 30.24 1023.4
19 12:53 W 7 10.00 Fair CLR 89.1 68 50% 93 30.25 1023.5
19 11:53 SW 7 10.00 A Few Clouds FEW090 86 69.1 57% 90 30.25 1023.7
19 10:53 SW 10 10.00 Fair CLR 82.9 70 65% 87 30.24 1023.4
19 09:53 SW 8 10.00 Fair CLR 80.1 70 71% 83 30.24 1023.4
19 08:53 S 8 10.00 Fair CLR 78.1 70 76% 80 30.22 1022.8
19 07:53 SW 5 10.00 Fair CLR 77 69.1 79 75 77% 79 30.21 1022.5
19 06:53 SW 6 10.00 Fair CLR 77 68 74% 79 30.19 1021.5
19 05:53 S 6 10.00 Fair CLR 75.9 68 77% 77 30.19 1021.5
19 04:53 S 3 10.00 Fair CLR 77 68 74% 79 30.16 1020.7
19 03:53 S 7 10.00 Fair CLR 78.1 68 71% 80 30.16 1020.4
19 02:53 S 6 10.00 Fair CLR 78.1 68 71% 80 30.15 1020.3
19 01:53 SW 8 10.00 Fair CLR 79 68 87.1 79 69% 81 30.14 1020.0
19 00:53 S 12 10.00 Fair CLR 80.1 69.1 69% 83 30.13 1019.7
18 23:53 S 13 10.00 Fair CLR 80.1 69.1 69% 83 30.11 1019.1
18 22:53 S 14 10.00 Fair CLR 82 69.1 65% 85 30.08 1017.9
18 21:53 S 12 10.00 Fair CLR 82 71.1 69% 86 30.06 1017.3
18 20:53 S 12 10.00 Fair CLR 82.9 72 70% 88 30.05 1017.0
18 19:53 S 15 G 18 10.00 A Few Clouds FEW050 87.1 72 91 84.9 61% 94 30.05 1016.8
18 18:53 S 8 10.00 A Few Clouds FEW050 91 71.1 52% 98 30.04 1016.6
18 17:53 SW 13 10.00 Fair CLR 89.1 69.1 52% 94 30.05 1017.0
18 16:53 S 20 G 28 10.00 Fair CLR 90 68 48% 94 30.06 1017.1
18 15:53 S 16 10.00 Fair CLR 90 70 52% 95 30.07 1017.6
18 14:53 S 13 10.00 Light Rain BKN110 86 70 59% 91 30.08 1018.0
18 13:53 S 16 G 22 10.00 A Few Clouds FEW120 88 70 88 78.1 55% 93 30.09 1018.4
18 12:53 S 14 G 24 10.00 Partly Cloudy FEW046 SCT110 84.9 71.1 63% 90 30.1 1018.6
18 11:53 S 13 10.00 Light Rain SCT048 SCT070 BKN110 82 70 67% 86 30.1 1018.7
18 10:53 S 10 10.00 Partly Cloudy SCT110 79 68 69% 81 30.09 1018.3
18 09:53 S 13 10.00 Fair CLR 79 69.1 72% 82 30.08 1017.9
18 08:53 S 9 10.00 A Few Clouds FEW110 78.1 69.1 74% 80 30.07 1017.5
18 07:53 S 10 10.00 Fair CLR 78.1 69.1 80.1 75 74% 80 30.06 1017.1
18 06:53 S 7 10.00 Fair CLR 77 69.1 77% 79 30.04 1016.5
18 05:53 S 6 10.00 Fair CLR 77 68 74% 79 30.04 1016.4
18 04:53 S 7 10.00 Fair CLR 75.9 69.1 79% 77 30.02 1015.8
18 03:53 S 6 10.00 Fair CLR 77 69.1 77% 79 30.02 1015.7
Date Time (edt) Wind (mph) Vis. (mi.) Weather Sky Cond. Air Dwpt Max. Min. Relative Humidity Wind Chill (°F) Heat Index (°F) altimeter (in) sea level (mb) 1 hr 3 hr 6 hr
6 hour
Temperature (ºF) Pressure Precipitation (in)